This demonstration page uses our WeatherBlox Daily Observations layout. Learn more.

Hourly Observations for October 9, 2018

Temp ( °F °C ) Dew Point ( °F °C ) Humidity (%) Winds ( mph kmh ) Pressure ( in mb ) Visibility ( mi km ) Precip ( " mm )
12:15 am 00:15 Cloudy 44 6.5 44 6.5 100 100 N 7 11 30 1016 10 16.0934 0 0
12:35 am 00:35 Cloudy with Rain 44 6.5 44 6.5 100 100 N 10 17 30 1016 5 8.0467 0 0
12:55 am 00:55 Cloudy with Mist and Fog 44 6.4 44 6.4 100 100 N 8 13 30 1016 5 8.0467 0 0
1:15 am 01:15 Cloudy 43 6.3 43 6.3 100 100 N 7 11 30 1016 7 11.26538 0 0
1:35 am 01:35 Cloudy 44 6.5 44 6.5 100 100 N 9 15 30 1016 7 11.26538 0 0
1:55 am 01:55 Cloudy 44 6.4 44 6.4 100 100 N 12 19 30 1016 10 16.0934 0 0
2:15 am 02:15 Cloudy 44 6.5 44 6.5 100 100 N 8 13 30 1016 10 16.0934 0 0
2:35 am 02:35 Cloudy 43 6.3 43 6.3 100 100 N 8 13 30 1016 10 16.0934 0 0
2:55 am 02:55 Cloudy 43 6.3 43 6.3 100 100 N 7 11 30 1016 10 16.0934 0 0
3:15 am 03:15 Cloudy with Drizzle 43 6.3 43 6.3 100 100 N 9 15 30 1016 7 11.26538 0 0
3:35 am 03:35 Cloudy with Drizzle 43 6.2 43 6.2 100 100 N 9 15 30 1016 3 4.82802 0.02 0.508
3:55 am 03:55 Cloudy with Drizzle 43 6.1 43 6.1 100 100 N 8 13 29.97 1015 4 6.43736 0.02 0.508
4:15 am 04:15 Cloudy with Mist and Fog 43 6 43 6 100 100 N 8 13 30 1016 4 6.43736 0.01 0.254
4:35 am 04:35 Cloudy with Drizzle 43 6 43 6 100 100 N 7 11 29.97 1015 3 4.82802 0.01 0.254
4:55 am 04:55 Cloudy with Light Drizzle 42 5.8 42 5.8 100 100 N 13 20 29.97 1015 4 6.43736 0.01 0.254
5:15 am 05:15 Cloudy 42 5.8 42 5.8 100 100 N 13 20 29.97 1015 7 11.26538 0 0
5:35 am 05:35 Cloudy with Mist and Fog 42 5.8 42 5.8 100 100 N 14 22 29.97 1015 5 8.0467 0 0
5:55 am 05:55 Cloudy with Mist and Fog 42 5.8 42 5.8 100 100 N 15 24 29.97 1015 4 6.43736 0 0
6:15 am 06:15 Cloudy with Light Rain 42 5.8 42 5.8 100 100 N 16 26 29.97 1015 5 8.0467 0.01 0.254
6:35 am 06:35 Cloudy with Rain 42 5.8 42 5.8 100 100 N 13 20 29.97 1015 5 8.0467 0.03 0.762
6:55 am 06:55 Cloudy with Rain 42 5.8 42 5.8 100 100 N 14 22 29.97 1015 7 11.26538 0.04 1.016
7:15 am 07:15 Cloudy with Light Rain 42 5.7 42 5.7 100 100 N 14 22 29.97 1015 7 11.26538 0.01 0.254
7:35 am 07:35 Cloudy with Rain 42 5.6 42 5.6 100 100 N 18 30 29.97 1015 7 11.26538 0.02 0.508
7:55 am 07:55 Cloudy with Light Rain 42 5.6 42 5.6 100 100 N 17 28 29.97 1015 10 16.0934 0.03 0.762
8:15 am 08:15 Cloudy with Light Rain 42 5.6 42 5.6 100 100 N 18 30 29.97 1015 10 16.0934 0.01 0.254
8:35 am 08:35 Cloudy with Rain 42 5.5 42 5.5 100 100 N 17 28 29.97 1015 7 11.26538 0.02 0.508
8:55 am 08:55 Cloudy with Light Rain 42 5.5 42 5.5 100 100 N 18 30 29.94 1014 10 16.0934 0.03 0.762
9:15 am 09:15 Cloudy with Light Rain 42 5.3 42 5.3 100 100 N 20 31 30 1016 7 11.26538 0.01 0.254
9:35 am 09:35 Cloudy with Rain 42 5.3 42 5.3 100 100 N 15 24 30 1016 7 11.26538 0.03 0.762
9:55 am 09:55 Cloudy with Rain 41 5.1 41 5.1 100 100 N 17 28 30 1016 4 6.43736 0.06 1.524
10:15 am 10:15 Cloudy with Rain 41 5.1 41 5.1 100 100 N 16 26 30 1016 2.5 4.02335 0.06 1.524
10:35 am 10:35 Cloudy with Rain 41 5.1 41 5.1 100 100 N 16 26 30 1016 4 6.43736 0.09 2.286
10:55 am 10:55 Cloudy with Rain 41 5.1 41 5.1 100 100 N 20 31 29.94 1014 5 8.0467 0.13 3.302
11:15 am 11:15 Cloudy with Light Rain 41 5.1 41 5.1 100 100 N 20 31 29.94 1014 2.5 4.02335 0.03 0.762
11:35 am 11:35 Cloudy with Rain 41 5.2 41 5.2 100 100 N 21 33 29.94 1014 7 11.26538 0.06 1.524
11:55 am 11:55 Cloudy with Rain 42 5.3 42 5.3 100 100 N 20 31 29.91 1013 5 8.0467 0.08 2.032
12:15 pm 12:15 Cloudy with Light Rain 42 5.4 42 5.4 100 100 N 18 30 29.91 1013 4 6.43736 0.03 0.762
12:35 pm 12:35 Cloudy with Light Rain 42 5.5 42 5.5 100 100 N 17 28 29.88 1012 7 11.26538 0.05 1.27
12:55 pm 12:55 Cloudy with Rain 42 5.5 42 5.5 100 100 N 22 35 29.88 1012 4 6.43736 0.08 2.032
1:15 pm 13:15 Cloudy with Light Rain 42 5.6 42 5.6 100 100 N 20 31 29.85 1011 2.5 4.02335 0.06 1.524
1:35 pm 13:35 Cloudy with Light Rain 42 5.7 42 5.7 100 100 N 20 31 29.85 1011 7 11.26538 0.08 2.032
1:55 pm 13:55 Cloudy with Light Rain 42 5.7 42 5.7 100 100 N 21 33 29.85 1011 7 11.26538 0.09 2.286
2:15 pm 14:15 Cloudy with Light Rain 42 5.6 42 5.6 100 100 N 20 31 29.85 1011 7 11.26538 0.02 0.508
2:35 pm 14:35 Cloudy with Rain 42 5.8 42 5.8 100 100 N 18 30 29.83 1010 5 8.0467 0.04 1.016
2:55 pm 14:55 Cloudy with Light Rain 43 5.9 43 5.9 100 100 N 20 31 29.83 1010 7 11.26538 0.04 1.016
3:15 pm 15:15 Cloudy with Light Rain 43 5.9 43 5.9 100 100 N 22 35 29.83 1010 10 16.0934 0.01 0.254
3:35 pm 15:35 Cloudy with Light Rain 43 5.9 42 5.8 99 99 N 24 39 29.83 1010 10 16.0934 0.01 0.254
3:55 pm 15:55 Cloudy 42 5.8 42 5.7 99 99 N 21 33 29.83 1010 10 16.0934 0.01 0.254
4:15 pm 16:15 Cloudy with Light Drizzle 42 5.7 42 5.6 99 99 N 18 30 29.83 1010 5 8.0467 0 0
4:35 pm 16:35 Cloudy with Light Rain 42 5.5 42 5.5 100 100 N 23 37 29.83 1010 3 4.82802 0.01 0.254
4:55 pm 16:55 Cloudy with Rain 42 5.5 42 5.5 100 100 N 20 31 29.83 1010 5 8.0467 0.03 0.762
5:15 pm 17:15 Cloudy with Drizzle 42 5.3 41 5.2 99 99 N 21 33 29.83 1010 5 8.0467 0.01 0.254
5:35 pm 17:35 Cloudy with Drizzle 41 5.2 41 5.2 100 100 N 16 26 29.83 1010 5 8.0467 0.02 0.508
5:55 pm 17:55 Cloudy with Drizzle 41 5.1 41 5.1 100 100 N 22 35 29.83 1010 5 8.0467 0.03 0.762
6:15 pm 18:15 Cloudy with Drizzle 41 5 41 5 100 100 N 21 33 29.83 1010 4 6.43736 0 0
6:35 pm 18:35 Cloudy with Rain 41 4.8 40 4.7 99 99 N 18 30 29.83 1010 5 8.0467 0.01 0.254
6:55 pm 18:55 Cloudy with Rain 40 4.7 40 4.7 100 100 N 21 33 29.83 1010 4 6.43736 0.06 1.524
7:15 pm 19:15 Cloudy with Light Rain 40 4.5 40 4.5 100 100 N 17 28 29.83 1010 5 8.0467 0.03 0.762
7:35 pm 19:35 Cloudy with Rain 40 4.5 40 4.5 100 100 NNW 14 22 29.83 1010 7 11.26538 0.03 0.762
7:55 pm 19:55 Cloudy with Light Rain 40 4.5 40 4.5 100 100 N 18 30 29.83 1010 7 11.26538 0.05 1.27
8:15 pm 20:15 Cloudy with Light Drizzle 40 4.3 40 4.2 99 99 N 16 26 29.83 1010 10 16.0934 0 0
8:35 pm 20:35 Cloudy 40 4.3 39 4.1 99 99 NNW 15 24 29.83 1010 10 16.0934 0 0
8:55 pm 20:55 Cloudy with Light Drizzle 40 4.2 39 4.1 99 99 N 17 28 29.83 1010 7 11.26538 0 0
9:15 pm 21:15 Cloudy with Mist and Fog 40 4.2 39 4.1 99 99 NNW 16 26 29.83 1010 5 8.0467 0 0
9:35 pm 21:35 Cloudy 40 4.2 39 4.1 99 99 N 15 24 29.83 1010 7 11.26538 0 0
9:55 pm 21:55 Cloudy 40 4.2 39 4 99 99 N 16 26 29.83 1010 10 16.0934 0 0
10:15 pm 22:15 Cloudy 40 4.3 39 4 98 98 N 15 24 29.83 1010 10 16.0934 0 0
10:35 pm 22:35 Cloudy 40 4.3 39 4 98 98 NNW 15 24 29.83 1010 10 16.0934 0 0
10:55 pm 22:55 Cloudy 40 4.3 39 4 98 98 NNW 15 24 29.83 1010 10 16.0934 0 0
11:15 pm 23:15 Cloudy 40 4.3 39 4 98 98 NNW 14 22 29.83 1010 10 16.0934 0 0
11:35 pm 23:35 Cloudy with Mist and Fog 39 3.7 38 3.6 99 99 NNW 9 15 29.85 1011 5 8.0467 0 0
11:55 pm 23:55 Cloudy with Mist and Fog 38 3.5 38 3.4 99 99 NNW 15 24 29.85 1011 3 4.82802 0 0

Powered by AerisWeather